Location: Unspecified
(0.0000°N, 0.0000°E)
Time: 10:33:00
(UTC+00:00)

Okean 3 - Pass Details

Date: 05 June 2019
Orbit: 577 x 601 km, 82.5° (Epoch: 17 June)

Event Time Altitude Azimuth Distance (km) Brightness Sun altitude
Rises 19:32:24 0° 215° (SW) 2,789 7.1 -21.6°
Reaches altitude 10° 19:35:23 10° 238° (WSW) 1,886 6.4 -22.3°
Maximum altitude 19:37:47 15° 274° (W) 1,583 6.5 -22.8°
Drops below altitude 10° 19:40:11 10° 309° (NW) 1,881 7.1 -23.3°
Sets 19:43:11 0° 333° (NNW) 2,777 7.7 -24.0°
